Regional Weather Roundup
Issued by NWS Sioux Falls, SD

Home | Current Version | Previous Version | Graphics & Text | Print | Product List | Glossary On
Versions: 1 2 3 4 5 6 7 8 9 10 11 12 13 14 15 16 17 18 19 20 21 22 23 24 25 26 27 28 29 30 31 32 33 34 35 36 37 38 39 40 41 42 43 44 45 46 47 48 49 50
000
ASUS43 KFSD 281902
RWRFSD

WEATHER ROUNDUP FOR SE SOUTH DAKOTA/SW MINNESOTA/NW IOWA
NATIONAL WEATHER SERVICE SIOUX FALLS SD
200 PM CDT FRI APR 28 2017

NOTE: "FAIR" INDICATES FEW OR NO CLOUDS BELOW 12,000 FEET WITH NO
SIGNIFICANT WEATHER AND OR OBSTRUCTIONS TO VISIBILITY.


SDZ038>040-050-052>070-282000-
SOUTHEAST SOUTH DAKOTA

CITY           SKY/WX    TMP DP  RH WIND       PRES   REMARKS
BROOKINGS      MOSUNNY   45  28  51 NE13G22   29.95R
CHAMBERLAIN    CLOUDY    51  27  39 NE14      29.95S
HURON          MOSUNNY   51  28  41 NE16G23   29.96S
MADISON        FAIR      45  28  53 NE16G25   29.94R
MITCHELL       PTSUNNY   49  26  41 NE13G22   29.95S
SIOUX FALLS    CLOUDY    46  32  58 NE20G26   29.93S
WINNER         FAIR      49  26  41 NE15      29.95R
YANKTON        CLOUDY    43  30  61 NE12      29.93R
$$

MNZ071-072-080-081-089-090-097-098-282000-
SOUTHWEST MINNESOTA

CITY           SKY/WX    TMP DP  RH WIND       PRES   REMARKS
FAIRMONT       CLOUDY    44  33  65 NE6       29.96R
JACKSON        CLOUDY    43  32  65 NE13      29.94R
MARSHALL       PTSUNNY   46  31  55 NE14      29.95F
MONTEVIDEO     SUNNY     50  28  43 E14       29.96F
PIPESTONE      CLOUDY    45  27  49 NE10G16   29.93R
REDWOOD FALLS  CLOUDY    47  30  51 N10       29.96S
TRACY          CLOUDY    45  33  63 NE14G21   29.96R
WINDOM         MOSUNNY   45  30  57 N15       29.93F
WORTHINGTON    CLOUDY    42  31  64 NE17      29.93S
$$

IAZ001>003-012>014-020>022-031-032-NEZ013-014-SDZ071-282000-
NORTHWEST IOWA

CITY           SKY/WX    TMP DP  RH WIND       PRES   REMARKS
CHEROKEE       CLOUDY    43  32  66 NE13G21   29.89F
DENISON        CLOUDY    36  36 100 NE18G29   29.86R
ESTHERVILLE    CLOUDY    42  33  70 N13       29.93R
LE MARS        CLOUDY    45  32  61 NE15G22   29.91R
ORANGE CITY    CLOUDY    45  34  65 NE10G20   29.89F
SHELDON        MOSUNNY   43  32  65 NE17G24   29.89F
SIOUX CITY     LGT RAIN  43  32  65 E12       29.90R
SPENCER        CLOUDY    44  32  62 NE16      29.91S
STORM LAKE     MIX PCPN  37  32  81 E17       29.88S
$$

ABBREVIATIONS USED IN REMARKS
   TC - TEMPERATURE IN CELSIUS
  WCI - WIND CHILL INDEX
   HX - HEAT INDEX
  VSB - VISIBILITY





USA.gov is the U.S. government's official web portal to all federal, state and local government web resources and services.